Location: Bathurst
(33.4193°S, 149.5775°E)
Time: 23:46:57
(UTC+10:00)

ISS - Visible Passes

Search period start: 26 May 2018 00:00
Search period end: 05 June 2018 00:00
Orbit: 402 x 407 km, 51.6° (Epoch: 26 May)

Date Brightness Start Highest point End Pass type
(mag) Time Alt. Az. Time Alt. Az. Time Alt. Az.
27 May -2.9 05:47:47 10° NNW 05:50:59 51° NE 05:54:14 10° SE visible
28 May -1.4 04:57:28 17° NNE 04:58:54 23° NE 05:01:36 10° ESE visible
29 May -3.6 05:41:41 30° WNW 05:42:59 51° SW 05:46:16 10° SE visible
30 May -1.6 04:52:40 23° SE 04:52:40 23° SE 04:54:05 10° SE visible
30 May -1.7 06:25:53 10° WSW 06:27:35 13° SSW 06:29:16 10° S visible
31 May -2.0 05:36:01 19° S 05:36:01 19° S 05:37:47 10° SSE visible
